SCP
0 0 0 0 0 0 0 0 0 0 0 0 0 0 0 0 0 0 0 0 0 0 0 0 0 0 0 0 0 0 0 0
0 0 0 0 0 0 0 0 0 0 0 0 0 0 0 0 0 0 0 0 0 0 0 0 0 0 0 0 0 0 0 0
0 0 0 0 0 0 0 0 0 0 0 0 0 0 0 0 0 0 0 0 0 0 0 0 0 0 0 0 0 0 0 0
0 0 0 0 0 0 0 0 0 0 0 0 0 0 0 0 0 0 0 0 0 0 0 0 0 0 0 0 0 0 0 0
0 0 0 0 0 0 0 0 0 0 0 0 0 0 0 0 0 0 0 0 0 0 0 0 0 0 0 0 0 0 0 0
0 0 0 0 0 0 0 0 0 0 0 0 0 0 0 0 0 0 0 0 0 0 0 0 0 0 0 0 0 0 0 0
0 0 0 0 0 0 0 0 0 0 0 0 0 0 0 0 0 0 0 0 0 0 0 0 0 0 0 0 0 0 0 0
0 0 0 0 0 0 0 0 0 0 0 0 0 0 0 0 0 0 0 0 0 0 0 0 0 0 0 0 0 0 0 0
0 0 0 0 0 0 0 0 0 0 0 0 0 0 0 0 0 0 0 0 0 0 0 0 0 0 0 0 0 0 0 0
0 0 -0 0 0 -0 0 0 0 0 0 0 0 0 0 0 0 0 0 0 0 0 0 0 0 0 0 0 0 0 0 0
0 0 0 0 0 0 0 0 0 0 0 0 0 0 0 0 0 0 0 0 0 0 0 0 0 0 0 0 0 0 0 0
0 0 0 0 0 0 0 0 0 0 0 0 0 0 0 0 0 0 0 0 0 0 0 0 0 0 0 0 0 0 0 0
0 -0 0 0 0 0 0 0 0 0 0 0 0 0 0 0 0 0 0 0 0 0 0 0 0 0 0 0 0 0 0 0
-0 -0 0 0 0 0 0 0 0 0 0 0 0 0 0 0 0 0 0 0 0 0 0 0 0 0 0 0 0 0 0 0
0 0 0 0 0 0 0 0 0 0 0 0 0 0 0 0 0 0 0 0 0 0 0 0 0 0 0 0 0 0 0 0
0 0 0 0 0 0 0 0 0 0 0 0 0 0 0 0 0 0 0 0 0 0 0 0 0 0 0 0 0 0 0 0
0 0 0 0 0 0 0 0 0 0 0 0 0 0 0 0 0 0 0 0 0 0 0 0 0 0 0 0 0 0 0 0
0 0 0 0 0 0 0 0 0 0 0 0 0 0 0 0 0 0 0 0 0 0 0 0 0 0 0 0 0 0 0 0
0 0 0 0 0 0 0 0 0 0 0 0 0 0 0 0 0 0 0 0 0 0 0 0 0 0 0 0 0 0 0 0
0 0 0 0 0 0 0 0 0 0 0 0 0 0 0 0 0 0 0 0 0 0 0 0 0 0 0 0 0 0 0 0
Wind_Speed_500mb
41 43 40 39 37 32 29 23 16 19 18 22 32 43 47 49 68 71 87 66 59 53 51 62 58 53 55 71 65 67 61 60
47 50 49 42 38 31 27 21 21 17 16 11 13 14 22 24 30 24 35 27 25 44 48 62 69 59 56 55 45 49 42 48
52 58 63 56 47 42 36 28 24 24 25 25 19 19 19 26 23 21 24 23 19 27 32 32 30 33 33 42 34 36 33 22
58 62 66 64 58 58 51 46 41 38 42 46 45 46 45 43 46 43 39 34 33 30 33 26 27 28 21 18 18 21 22 18
57 59 59 60 58 51 48 43 38 35 37 34 34 36 38 37 32 34 33 29 34 30 27 31 25 17 13 11 9 9 5 9
56 54 54 51 46 40 35 30 25 22 26 30 31 29 28 29 26 27 24 22 19 19 18 17 19 20 16 13 9 6 6 8
57 54 54 53 50 45 43 39 29 26 28 28 27 28 30 31 28 25 25 25 24 22 21 19 19 17 17 16 16 15 13 15
57 54 55 52 48 47 45 42 37 38 36 33 28 26 27 28 28 28 27 27 26 27 23 22 24 22 21 22 19 20 18 16
52 52 51 47 47 44 42 40 37 39 38 37 31 33 34 30 29 27 29 32 32 31 27 24 28 27 23 21 19 17 16 14
48 46 44 45 42 39 41 38 36 37 35 32 29 30 31 30 29 27 22 24 24 25 24 20 22 21 18 17 14 13 12 10
43 42 43 43 38 37 38 35 37 34 32 29 28 26 25 26 25 25 22 23 24 21 20 17 16 15 12 11 9 8 6 5
38 41 42 40 34 37 34 36 35 31 28 26 24 23 22 22 21 19 17 16 18 16 14 11 9 8 5 3 1 3 3 5
36 38 37 37 34 33 31 32 28 25 23 21 20 18 17 16 16 15 13 10 10 9 9 6 3 1 2 3 6 8 9 10
34 33 32 31 29 25 26 25 23 21 19 17 16 13 13 13 12 10 8 8 8 8 6 4 4 4 6 8 11 14 15 17
33 33 32 29 25 21 18 15 14 14 14 13 12 12 11 10 8 6 4 5 5 5 5 6 7 9 11 13 15 18 21 23
24 24 22 21 19 18 17 15 13 12 12 14 15 16 16 14 13 11 9 9 8 7 8 10 11 13 15 16 19 23 27 31
17 18 19 19 19 18 16 14 14 16 16 15 16 17 18 19 20 21 22 20 18 19 17 19 20 23 25 27 28 31 37 37
18 20 18 18 19 20 20 21 21 21 24 27 28 28 28 27 25 24 24 24 25 27 29 31 31 29 28 24 29 37 40 43
16 14 17 19 22 23 24 25 25 25 26 28 28 30 30 31 30 28 28 28 28 29 31 33 36 36 29 31 37 41 44 44
9 13 16 20 25 28 29 30 29 27 27 26 27 28 28 29 30 29 29 28 28 27 32 34 38 39 35 34 41 44 45 40
Wind_Direction_500mb
128 135 134 138 140 144 155 165 181 236 250 253 248 249 252 257 245 238 232 228 215 224 232 222 241 259 262 246 247 253 230 234
119 121 119 122 128 129 134 141 169 181 179 188 197 208 217 209 206 186 199 213 242 226 229 245 250 257 225 228 235 225 231 220
115 114 110 110 109 108 105 112 119 127 132 132 128 119 142 162 166 181 203 188 211 239 228 223 213 224 209 199 207 205 187 168
102 101 101 101 101 99 99 100 101 102 107 110 112 108 104 102 107 109 112 126 124 127 128 132 138 127 121 128 127 145 144 133
90 92 98 101 102 105 105 107 103 105 103 102 104 105 107 107 107 107 107 113 120 119 119 129 124 110 102 106 88 149 176 154
87 88 91 97 99 101 100 102 102 98 99 98 98 96 97 101 103 101 110 119 115 112 124 128 121 113 111 112 125 154 197 159
84 87 88 90 92 95 93 90 94 95 94 91 92 99 102 97 96 103 106 107 110 114 123 133 136 146 153 149 144 143 145 138
78 83 85 86 91 92 95 96 100 97 94 87 85 94 93 89 86 92 100 103 111 115 116 120 119 116 113 109 115 123 135 142
77 80 82 85 87 88 90 93 93 94 95 95 97 93 91 95 98 98 100 106 108 110 111 109 111 112 118 124 130 133 140 144
76 79 81 82 85 88 88 88 86 84 83 83 84 90 95 100 103 104 102 102 106 110 113 117 119 120 122 121 124 130 139 148
75 78 80 79 79 82 83 84 84 83 82 82 83 84 87 87 90 92 96 99 101 103 106 108 115 115 119 125 133 136 145 165
76 76 76 77 76 78 80 80 77 77 76 75 76 77 81 86 91 87 84 87 96 100 103 105 112 121 139 132 180 223 239 250
80 78 75 73 71 72 72 72 73 72 70 71 72 72 73 74 77 80 77 77 77 83 93 89 89 38 281 284 285 288 282 280
75 74 73 70 67 62 61 58 58 57 54 54 54 52 51 50 54 58 58 55 54 51 40 38 344 327 319 310 301 297 291 291
64 62 61 59 56 52 48 41 31 26 18 19 21 18 24 26 25 35 48 40 30 0 336 324 306 297 294 292 288 286 287 286
53 48 43 36 29 24 18 13 5 357 345 332 321 317 317 320 319 320 318 323 322 310 309 312 306 297 294 296 300 298 297 297
29 17 4 354 347 341 333 323 319 316 312 304 300 298 302 302 297 290 288 286 279 278 269 267 265 274 284 292 301 310 309 303
358 354 355 358 357 347 335 322 310 296 287 287 288 289 289 288 286 283 279 272 266 263 268 271 268 276 286 291 309 311 307 304
1 24 24 16 8 1 355 348 339 322 300 285 282 281 281 280 279 279 278 279 280 276 275 283 285 289 294 306 300 301 302 299
21 14 7 355 349 341 336 335 332 327 320 311 299 287 282 279 277 276 275 276 276 277 280 281 283 285 285 290 290 290 292 290
Wind_Speed_850mb
41 43 40 39 37 32 29 23 16 19 18 22 32 43 47 49 68 71 87 66 59 53 51 62 58 53 55 71 65 67 61 60
47 50 49 42 38 31 27 21 21 17 16 11 13 14 22 24 30 24 35 27 25 44 48 62 69 59 56 55 45 49 42 48
52 58 63 56 47 42 36 28 24 24 25 25 19 19 19 26 23 21 24 23 19 27 32 32 30 33 33 42 34 36 33 22
58 62 66 64 58 58 51 46 41 38 42 46 45 46 45 43 46 43 39 34 33 30 33 26 27 28 21 18 18 21 22 18
57 59 59 60 58 51 48 43 38 35 37 34 34 36 38 37 32 34 33 29 34 30 27 31 25 17 13 11 9 9 5 9
56 54 54 51 46 40 35 30 25 22 26 30 31 29 28 29 26 27 24 22 19 19 18 17 19 20 16 13 9 6 6 8
57 54 54 53 50 45 43 39 29 26 28 28 27 28 30 31 28 25 25 25 24 22 21 19 19 17 17 16 16 15 13 15
57 54 55 52 48 47 45 42 37 38 36 33 28 26 27 28 28 28 27 27 26 27 23 22 24 22 21 22 19 20 18 16
52 52 51 47 47 44 42 40 37 39 38 37 31 33 34 30 29 27 29 32 32 31 27 24 28 27 23 21 19 17 16 14
48 46 44 45 42 39 41 38 36 37 35 32 29 30 31 30 29 27 22 24 24 25 24 20 22 21 18 17 14 13 12 10
43 42 43 43 38 37 38 35 37 34 32 29 28 26 25 26 25 25 22 23 24 21 20 17 16 15 12 11 9 8 6 5
38 41 42 40 34 37 34 36 35 31 28 26 24 23 22 22 21 19 17 16 18 16 14 11 9 8 5 3 1 3 3 5
36 38 37 37 34 33 31 32 28 25 23 21 20 18 17 16 16 15 13 10 10 9 9 6 3 1 2 3 6 8 9 10
34 33 32 31 29 25 26 25 23 21 19 17 16 13 13 13 12 10 8 8 8 8 6 4 4 4 6 8 11 14 15 17
33 33 32 29 25 21 18 15 14 14 14 13 12 12 11 10 8 6 4 5 5 5 5 6 7 9 11 13 15 18 21 23
24 24 22 21 19 18 17 15 13 12 12 14 15 16 16 14 13 11 9 9 8 7 8 10 11 13 15 16 19 23 27 31
17 18 19 19 19 18 16 14 14 16 16 15 16 17 18 19 20 21 22 20 18 19 17 19 20 23 25 27 28 31 37 37
18 20 18 18 19 20 20 21 21 21 24 27 28 28 28 27 25 24 24 24 25 27 29 31 31 29 28 24 29 37 40 43
16 14 17 19 22 23 24 25 25 25 26 28 28 30 30 31 30 28 28 28 28 29 31 33 36 36 29 31 37 41 44 44
9 13 16 20 25 28 29 30 29 27 27 26 27 28 28 29 30 29 29 28 28 27 32 34 38 39 35 34 41 44 45 40
Wind_Direction_850mb
128 135 134 138 140 144 155 165 181 236 250 253 248 249 252 257 245 238 232 228 215 224 232 222 241 259 262 246 247 253 230 234
119 121 119 122 128 129 134 141 169 181 179 188 197 208 217 209 206 186 199 213 242 226 229 245 250 257 225 228 235 225 231 220
115 114 110 110 109 108 105 112 119 127 132 132 128 119 142 162 166 181 203 188 211 239 228 223 213 224 209 199 207 205 187 168
102 101 101 101 101 99 99 100 101 102 107 110 112 108 104 102 107 109 112 126 124 127 128 132 138 127 121 128 127 145 144 133
90 92 98 101 102 105 105 107 103 105 103 102 104 105 107 107 107 107 107 113 120 119 119 129 124 110 102 106 88 149 176 154
87 88 91 97 99 101 100 102 102 98 99 98 98 96 97 101 103 101 110 119 115 112 124 128 121 113 111 112 125 154 197 159
84 87 88 90 92 95 93 90 94 95 94 91 92 99 102 97 96 103 106 107 110 114 123 133 136 146 153 149 144 143 145 138
78 83 85 86 91 92 95 96 100 97 94 87 85 94 93 89 86 92 100 103 111 115 116 120 119 116 113 109 115 123 135 142
77 80 82 85 87 88 90 93 93 94 95 95 97 93 91 95 98 98 100 106 108 110 111 109 111 112 118 124 130 133 140 144
76 79 81 82 85 88 88 88 86 84 83 83 84 90 95 100 103 104 102 102 106 110 113 117 119 120 122 121 124 130 139 148
75 78 80 79 79 82 83 84 84 83 82 82 83 84 87 87 90 92 96 99 101 103 106 108 115 115 119 125 133 136 145 165
76 76 76 77 76 78 80 80 77 77 76 75 76 77 81 86 91 87 84 87 96 100 103 105 112 121 139 132 180 223 239 250
80 78 75 73 71 72 72 72 73 72 70 71 72 72 73 74 77 80 77 77 77 83 93 89 89 38 281 284 285 288 282 280
75 74 73 70 67 62 61 58 58 57 54 54 54 52 51 50 54 58 58 55 54 51 40 38 344 327 319 310 301 297 291 291
64 62 61 59 56 52 48 41 31 26 18 19 21 18 24 26 25 35 48 40 30 0 336 324 306 297 294 292 288 286 287 286
53 48 43 36 29 24 18 13 5 357 345 332 321 317 317 320 319 320 318 323 322 310 309 312 306 297 294 296 300 298 297 297
29 17 4 354 347 341 333 323 319 316 312 304 300 298 302 302 297 290 288 286 279 278 269 267 265 274 284 292 301 310 309 303
358 354 355 358 357 347 335 322 310 296 287 287 288 289 289 288 286 283 279 272 266 263 268 271 268 276 286 291 309 311 307 304
1 24 24 16 8 1 355 348 339 322 300 285 282 281 281 280 279 279 278 279 280 276 275 283 285 289 294 306 300 301 302 299
21 14 7 355 349 341 336 335 332 327 320 311 299 287 282 279 277 276 275 276 276 277 280 281 283 285 285 290 290 290 292 290